RJOC

Izumo Airport

Airport
ICAO code
RJOC
IATA Code
IZO
Summary
ICAO Region
APAC
ICAO Territory
Location

Izumo, Shimane

Serving
Izumo
Elevation
6 ft
Coordinates
35° 24' 48" N , 132° 53' 21" E
KCC
Metar
RJOC 231400Z AUTO 16006KT 9999 NCD 20/17 Q1009

Izumo Airport is an airport in Izumo, Shimane Prefecture, Japan

Climatology

Humid Sub-tropical climate (Köppen climate classification Cwa) - Hot humid summers and cooler winter. Significant precipitation in all seasons but drier in the winter.

Runways

Designator Length Width Surface Rops
7/25 2000 45 ASP Yes/Yes

Airport map

Aerial View

Airport accidents

SKYbrary Partners:

Safety knowledge contributed by: